Theta_e
319 321 322 321 321 317 309 306 306 306 306 306 306 307 306 306 306 306 306 306 306 306 306 306 306 306 306 305 305 305 305 305 304 304 303 303 303 303 303 303 303 302
320 322 322 321 321 317 309 306 306 306 306 306 306 306 306 306 306 306 306 306 306 307 307 307 307 307 307 306 306 306 305 305 305 305 305 304 304 304 303 303 303 303
322 322 322 321 321 318 310 306 306 306 306 306 306 306 306 306 306 306 306 307 307 307 307 307 307 307 307 307 307 307 306 306 306 306 305 305 305 305 305 305 304 304
323 323 322 322 322 320 312 307 306 306 306 306 306 306 306 307 307 307 307 307 307 307 307 307 307 308 307 307 307 307 307 307 307 306 306 306 306 306 306 306 306 306
322 323 322 322 323 319 312 307 306 306 306 306 307 307 307 307 307 307 307 307 308 308 308 309 309 309 310 310 309 309 308 308 308 308 307 307 306 306 306 306 306 306
322 323 323 323 322 318 312 308 306 306 307 307 307 307 307 307 307 308 309 310 311 312 312 313 313 313 313 313 313 312 312 311 311 311 310 309 309 308 307 306 306 306
323 323 323 323 321 316 311 308 306 307 307 307 307 307 308 309 310 312 313 314 315 316 316 317 317 316 316 316 316 316 315 315 314 313 313 313 312 311 309 308 308 307
324 323 323 323 320 316 315 311 307 307 307 307 308 309 310 312 314 316 316 317 317 317 317 317 317 318 318 318 317 318 317 317 317 316 315 314 314 313 312 311 310 310
323 323 323 323 319 317 319 317 310 307 307 308 310 312 314 315 317 317 317 317 317 317 317 317 317 318 318 318 318 318 318 318 318 318 317 316 315 314 314 313 312 312
323 322 322 322 319 317 320 319 313 308 309 310 313 315 316 317 318 318 317 316 315 315 315 315 316 317 317 317 318 318 318 318 318 318 318 318 317 316 315 314 314 313
323 322 321 320 318 318 320 319 314 311 311 313 315 317 317 318 318 317 315 313 312 313 314 314 315 315 315 316 317 318 318 318 318 319 318 318 318 318 317 316 315 315
323 321 320 320 318 317 318 319 316 314 314 314 316 317 318 318 318 317 314 312 314 315 314 314 314 315 315 315 316 317 317 317 317 317 318 318 318 317 317 317 317 316
323 322 321 320 318 317 317 318 318 317 317 316 317 318 318 319 319 317 314 314 317 317 315 314 315 315 316 316 316 317 317 317 317 316 317 317 317 317 317 317 317 317
323 322 320 318 317 317 317 317 318 318 318 317 318 319 319 319 319 318 316 316 318 317 316 316 316 316 316 316 316 317 317 317 317 316 316 316 316 316 317 317 317 317
322 321 319 318 318 318 318 317 318 318 319 318 318 319 319 319 319 319 318 318 318 318 317 317 317 317 316 316 316 317 317 317 317 317 317 317 317 318 318 318 318 318
320 319 319 319 319 320 319 318 318 319 319 318 319 319 319 319 319 318 318 318 318 317 316 316 316 316 316 316 316 316 316 317 317 317 317 318 318 318 318 318 319 318
320 320 320 320 320 320 320 319 319 319 318 318 318 318 318 318 318 317 317 316 316 315 315 315 316 317 317 316 315 315 315 314 314 314 314 315 316 317 317 318 318 318
320 320 320 321 320 319 318 319 318 318 317 317 317 317 317 316 316 316 315 314 314 314 314 314 316 317 317 316 316 315 314 313 313 312 312 312 313 314 314 315 316 318
318 318 319 319 317 315 315 315 315 315 315 316 316 315 314 314 314 313 312 312 312 311 311 311 312 314 315 316 316 316 315 315 314 312 311 310 310 311 311 311 312 313
314 314 314 314 313 312 312 312 313 313 313 313 313 312 312 311 311 310 310 310 309 309 309 308 309 309 311 313 315 316 316 315 314 313 312 310 309 309 309 310 310 310
311 311 311 310 311 311 311 311 310 311 311 310 310 310 309 309 309 308 308 307 306 305 305 304 304 304 305 306 309 312 314 314 313 312 310 309 308 308 309 309 309 310
309 309 309 309 309 309 309 309 309 309 309 308 308 307 307 307 306 306 305 304 304 303 303 302 302 302 301 302 303 305 309 310 310 309 308 307 307 308 308 308 308 310
308 308 308 308 308 308 308 308 308 308 307 307 306 306 306 306 306 306 306 306 305 305 305 304 303 303 302 301 301 302 304 305 306 306 307 308 308 308 307 307 307 308
307 307 307 308 308 308 308 308 308 308 307 307 306 306 306 306 307 307 307 307 306 306 305 304 304 303 302 302 301 302 303 304 306 307 308 308 308 307 307 306 306 307
306 306 306 307 307 307 307 307 307 307 307 307 307 307 307 307 307 306 306 306 306 305 305 304 304 303 302 302 301 302 304 305 307 308 308 308 307 306 306 306 307 307
306 305 305 305 305 305 305 305 306 306 306 306 306 306 305 305 305 305 305 306 305 305 305 304 304 303 302 302 303 303 304 306 308 309 308 307 306 306 306 307 307 307
Wind_Speed
6 3 1 0 2 2 2 3 5 7 8 8 9 10 10 10 10 10 10 10 11 12 12 13 13 13 13 13 13 13 13 13 13 13 12 12 11 11 10 9 9 9
8 5 4 2 1 1 1 4 6 8 9 9 10 10 10 9 9 10 10 10 10 11 11 11 11 11 11 12 12 12 12 12 12 13 12 13 13 12 12 11 11 11
10 8 6 4 2 1 2 5 8 9 10 10 11 10 10 10 10 9 9 9 9 8 8 8 8 9 9 9 9 9 10 10 10 11 11 11 11 11 11 11 11 11
12 11 9 6 4 3 4 7 9 10 10 11 11 10 10 10 9 9 8 7 6 6 6 6 6 7 7 8 8 8 8 8 8 8 8 8 9 9 9 9 9 9
13 12 10 8 7 5 6 9 10 10 11 11 11 10 10 9 8 7 6 5 5 5 5 6 6 6 7 7 7 8 8 7 7 7 7 6 6 7 7 7 7 7
14 14 12 10 9 8 9 11 11 11 11 11 11 10 9 9 8 7 6 5 5 6 6 6 6 6 6 7 7 7 8 7 7 7 7 6 6 5 5 5 5 5
17 15 14 12 11 10 11 12 13 13 12 11 11 10 9 8 8 7 6 6 5 5 5 5 5 5 6 6 6 6 6 6 6 6 6 6 6 5 5 4 4 4
18 16 14 13 13 13 13 13 14 14 13 13 12 11 10 9 8 7 6 4 3 3 2 1 2 2 3 3 4 4 4 4 4 4 5 5 6 5 5 4 4 4
17 17 16 15 15 15 14 12 14 15 15 14 13 12 11 10 9 7 6 5 4 3 2 1 1 2 1 0 0 1 3 3 3 3 3 3 4 4 4 4 4 4
17 17 17 17 17 16 15 13 14 16 16 16 14 13 12 10 9 9 8 6 5 5 4 4 5 6 6 4 3 3 5 6 7 6 6 5 5 4 4 5 5 5
19 17 17 17 18 17 16 15 15 15 16 16 15 14 13 11 11 11 10 8 8 8 8 8 8 9 10 10 9 8 8 10 11 12 11 9 9 8 8 8 7 6
19 17 16 17 17 17 17 18 17 15 16 16 16 15 14 13 13 13 12 11 11 11 10 10 11 12 13 15 16 15 15 14 15 15 16 15 14 13 13 12 10 9
15 15 15 16 17 16 18 19 18 17 16 16 15 14 14 14 14 14 14 14 14 13 13 12 13 14 16 17 19 19 19 19 18 17 17 17 16 16 16 15 13 12
9 12 13 15 16 16 17 19 19 19 18 16 15 15 14 14 14 15 16 16 16 15 15 15 15 17 18 19 19 18 19 20 19 17 17 16 16 16 16 15 14 14
8 10 12 13 15 17 19 21 21 21 20 17 15 15 14 14 14 15 15 15 16 16 17 18 19 19 18 18 18 18 18 19 18 17 16 17 17 16 16 16 17 17
8 10 12 13 15 18 20 21 20 20 19 16 14 14 14 13 13 14 15 15 16 15 15 14 13 12 11 11 11 12 12 12 12 12 13 13 14 14 14 14 15 16
8 9 11 12 14 16 17 17 18 18 18 17 16 16 16 15 14 14 13 12 10 9 7 6 5 5 4 4 4 4 5 6 7 8 9 10 10 11 12 12 13 15
10 10 11 13 13 14 13 13 14 14 14 14 13 12 11 11 9 8 7 6 5 5 4 3 3 4 4 4 5 5 5 6 6 6 7 8 9 10 11 11 12 14
8 9 10 11 11 10 10 9 9 9 9 8 8 7 7 8 8 7 6 6 5 4 4 4 4 4 4 5 6 7 7 7 8 8 8 9 10 11 11 11 11 12
8 9 9 9 9 9 8 8 9 9 9 9 9 9 9 8 8 7 6 5 5 5 5 5 6 6 5 5 6 7 8 8 9 10 10 10 11 11 11 11 11 11
7 8 8 9 9 9 9 9 9 10 10 10 9 8 7 7 6 6 6 5 4 4 4 4 4 5 5 6 6 7 8 9 10 11 12 12 11 10 10 10 10 10
7 7 7 8 8 8 8 8 8 8 8 8 7 6 6 6 5 5 4 3 3 2 3 4 4 5 5 6 6 7 9 10 11 11 11 10 9 9 9 9 9 9
7 6 6 7 7 7 7 8 8 7 7 6 5 5 4 3 3 2 2 3 4 4 5 5 6 7 7 7 7 7 8 9 10 10 9 8 8 8 8 8 7 7
6 5 5 5 5 6 7 7 7 7 6 5 4 4 3 3 3 4 5 6 6 7 7 8 8 8 9 9 8 8 8 8 8 8 8 8 8 8 7 6 6 5
6 6 5 4 4 4 4 4 5 5 5 5 5 5 5 5 6 6 7 8 9 9 10 10 10 10 10 10 9 8 7 7 6 7 7 8 8 6 5 4 4 5
12 13 13 12 11 11 11 11 12 11 10 9 9 8 8 8 8 9 9 9 10 11 11 12 12 11 10 9 8 8 7 6 6 6 7 7 6 4 3 3 3 4
Wind_Direction
203 190 200 333 8 21 72 122 130 132 129 131 133 130 127 122 117 112 109 109 105 100 97 93 90 89 87 85 81 76 74 74 75 77 78 79 80 79 77 76 75 75
215 211 215 219 251 342 154 159 152 148 144 143 141 138 134 129 124 119 114 111 106 101 96 91 89 87 85 85 82 77 74 71 72 73 74 75 76 76 76 77 79 79
226 223 213 206 224 247 203 184 170 163 157 151 147 143 140 136 131 127 122 116 108 102 94 87 82 78 77 77 77 77 74 70 69 70 68 69 73 76 78 79 80 83
235 229 214 200 214 228 209 194 181 173 166 156 151 148 144 140 136 131 125 117 106 95 84 75 69 65 62 61 62 64 64 63 63 63 60 61 66 69 73 75 75 80
236 230 217 203 208 216 207 196 187 182 176 164 155 152 147 143 140 135 127 114 101 93 83 74 68 64 60 56 53 49 48 47 44 44 46 46 48 50 56 61 61 63
233 226 218 210 208 206 201 193 185 185 185 173 162 160 157 152 149 141 132 121 111 105 99 92 85 79 73 65 58 51 44 39 35 35 35 31 27 27 34 43 46 46
236 225 218 215 212 202 196 192 186 186 190 184 175 172 168 159 151 143 136 128 120 112 104 99 92 86 83 77 72 64 54 45 36 32 27 23 21 19 18 24 25 25
237 227 219 220 215 201 193 191 187 187 192 193 188 182 175 166 158 153 151 146 141 136 121 98 80 68 71 73 68 59 52 45 34 26 16 9 9 6 2 5 8 7
234 229 224 223 216 199 193 194 190 190 194 196 194 189 183 178 174 176 184 191 199 208 223 244 277 299 300 313 21 349 340 332 329 328 326 333 339 337 333 332 336 344
240 235 229 224 214 201 201 203 195 193 197 198 198 196 194 194 196 199 204 213 229 242 250 262 279 286 283 271 261 275 291 294 291 284 277 277 280 279 279 280 283 293
246 240 230 221 211 204 207 206 197 196 198 200 202 202 205 214 216 214 223 242 252 256 261 268 277 282 278 272 270 277 285 287 285 278 271 269 270 270 268 261 255 262
242 235 226 218 212 209 209 205 199 197 198 200 204 208 216 227 230 232 242 251 250 253 263 272 278 280 275 270 272 280 286 288 289 283 275 271 270 271 273 271 267 266
233 228 221 218 217 214 211 208 206 203 201 203 209 217 227 234 238 242 248 251 250 253 263 271 278 280 279 277 278 280 281 281 285 285 279 273 268 269 273 273 272 273
222 220 217 219 220 216 212 211 212 209 207 210 217 227 234 237 242 247 250 253 254 257 266 274 281 283 282 281 279 277 276 277 280 280 276 272 269 270 274 271 269 273
221 220 219 219 218 215 214 216 217 216 215 220 229 235 236 237 242 247 251 256 258 263 272 279 284 284 281 279 276 275 275 276 278 277 273 273 273 273 274 271 269 272
216 219 219 219 219 219 221 223 223 221 220 226 235 240 239 240 245 250 256 262 265 270 277 281 284 282 279 278 277 276 275 276 278 277 274 274 273 273 275 275 274 274
211 213 212 215 221 224 225 226 227 227 228 234 242 245 246 249 253 255 257 258 259 261 266 274 279 276 274 278 279 275 273 275 279 280 281 282 281 281 282 280 276 271
215 218 217 217 218 221 221 223 229 232 232 235 238 238 237 236 233 228 224 223 225 232 244 256 261 260 265 272 278 285 289 292 297 300 300 298 295 293 291 286 280 271
199 203 208 208 204 205 206 205 208 209 202 196 195 188 182 182 186 189 195 204 216 235 252 264 267 265 266 269 275 284 291 298 304 305 304 301 297 295 293 292 289 282
163 168 177 180 177 179 180 175 174 171 166 166 168 168 170 176 185 197 210 222 238 256 267 275 278 277 278 276 276 281 287 294 298 299 299 298 295 294 294 294 292 289
166 168 172 175 175 174 171 167 164 163 165 170 173 179 188 198 208 218 229 238 249 265 279 291 297 297 293 286 279 278 281 285 290 293 296 298 297 294 293 293 295 293
160 172 175 173 172 172 174 175 175 177 181 184 189 199 208 216 224 231 238 247 258 283 304 315 319 316 314 306 291 278 275 277 283 290 297 301 300 298 297 298 300 298
137 153 167 171 173 175 178 182 184 186 189 189 192 201 206 214 233 253 276 293 305 314 318 321 319 316 315 312 302 286 276 276 280 287 295 298 299 301 304 303 299 294
139 137 145 152 159 170 179 188 192 194 198 205 214 227 238 248 265 282 293 302 308 311 314 314 314 312 311 307 301 291 280 275 276 281 285 288 294 300 304 304 303 304
215 225 225 212 212 219 221 229 232 227 228 240 251 259 265 270 276 282 288 295 300 304 308 310 311 311 310 305 297 287 279 274 271 270 270 275 285 297 308 319 330 337
253 253 252 253 258 264 269 274 273 270 271 273 271 271 274 277 281 286 292 298 302 306 309 311 313 313 309 302 293 282 275 268 260 258 262 270 281 295 319 338 341 334